Find Starlink 36373

NORAD ID: 68039 Int'l Des: 2026-040 Owner: SPXS Country: US Constellation: starlink operational
LEOCIRCULARRETROGRADE

Live Position

Loading 3D Globe...

About Starlink 36373

Description loading...

Upcoming Passes

Passes for default location (London). Set your location on the main map for personalized predictions.

Altitude History

Loading altitude history...

Two-Line Element Set

1 68039U 26040AB 26106.91668981 -.02242664 00000-0 -66957-1 0 9993
2 68039 97.2861 56.5041 0001451 61.8123 295.4513 15.38047897 6023
Epoch: Apr 16, 2026 • Age: 5 hours

Current Status

Altitude 459.1 km
Velocity 7.64 km/s
Sub-Earth Point 36.83°N, 163.09°E
Launch Date Mar 1, 2026
Age 0.1 years
Type internet

Technical Details

Classification Payload
Mass 575.00 kg
Dry Mass 530.00 kg
Total Mass 575.00 kg
Length 0.30 m
Diameter 4.10 m
Span 29.00 m
Shape Box + pan
Manufacturer SPXS
Bus Type Starlink V2MO
Phase Status In Orbit
Owner/State SPXS/US

Most Searched